Location: Church Tower
(37.7144°N, 119.6316°W)
Time: 19:38:01
(UTC+00:00)

Cosmos 1400 Rocket - Pass Details

Date: 15 November 2025
Orbit: 477 x 514 km, 81.1° (Epoch: 08 December)

Event Time Altitude Azimuth Distance (km) Brightness Sun altitude
Rises 13:47:57 0° 347° (NNW) 2,571 6.0 -10.4°
Reaches altitude 10° 13:50:06 10° 344° (NNW) 1,679 5.0 -10.0°
Maximum altitude 13:53:43 60° 264° (W) 555 2.6 -9.3°
Drops below altitude 10° 13:57:16 10° 183° (S) 1,648 5.4 -8.6°
Sets 13:59:22 0° 180° (S) 2,519 6.4 -8.2°
